Location: Newark
(36.7482°N, 42.3014°E)
Time: 20:28:19
(UTC+00:00)

Starlink (trailer) - Visible Passes

Search period start: 19 July 2019 00:00
Search period end: 29 July 2019 00:00
Orbit: 548 x 551 km, 53.0° (Epoch: 18 July)

Date Brightness Start Highest point End Pass type
(mag) Time Alt. Az. Time Alt. Az. Time Alt. Az.
19 Jul 6.4 00:59:48 10° NNW 01:00:37 10° NNW 01:01:27 10° N visible
19 Jul 6.6 21:38:49 11° ENE 21:38:49 11° ENE 21:38:55 10° ENE visible
19 Jul 5.3 23:14:27 25° NW 23:14:40 26° NNW 23:18:10 10° NNE visible
20 Jul 6.5 21:33:18 12° NE 21:33:18 12° NE 21:33:36 10° NE visible
20 Jul 5.7 23:08:56 20° NW 23:09:24 21° NNW 23:12:34 10° NNE visible
21 Jul 6.5 21:27:44 13° NE 21:27:44 13° NE 21:28:13 10° NE visible
21 Jul 6.0 23:03:21 16° NW 23:04:09 17° NNW 23:06:56 10° NNE visible
22 Jul 6.4 21:22:07 14° NE 21:22:07 14° NE 21:22:46 10° NE visible
22 Jul 6.2 22:57:44 13° NW 22:58:56 14° NNW 23:01:15 10° NNE visible
23 Jul 6.4 21:16:26 15° NNE 21:16:26 15° NNE 21:17:16 10° NE visible
23 Jul 6.5 22:52:03 10° NW 22:53:44 12° NNW 22:55:30 10° N visible
24 Jul 6.4 21:10:42 16° NNE 21:10:42 16° NNE 21:11:44 10° NNE visible
24 Jul 6.7 22:47:35 10° NNW 22:48:34 11° NNW 22:49:35 10° N visible
25 Jul 6.3 21:04:51 17° NNE 21:04:51 17° NNE 21:06:10 10° NNE visible
26 Jul 6.3 20:58:51 18° N 20:58:51 18° N 21:00:34 10° NNE visible
27 Jul 6.9 00:18:51 10° N 00:19:37 10° NNE 00:20:24 10° NNE visible
27 Jul 6.4 20:52:34 17° NNW 20:52:34 17° NNW 20:54:56 10° NNE visible
28 Jul 6.8 00:12:50 10° N 00:14:27 12° NNE 00:16:04 10° NE visible
28 Jul 6.0 19:09:59 15° NE 19:09:59 15° NE 19:10:44 10° NE visible
28 Jul 6.6 20:45:27 13° NW 20:46:51 15° NNW 20:49:15 10° NNE visible
